Theta_e
320 322 325 326 322 325 325 326 328 328 326 323 324 324 334 341 346 350 347 349 339 332 339 346 347 346 346 342 340 338 340 340 340 339 337 331 334 339 337 331 328 324 322 321 320 318 313 312 311
319 322 327 322 324 327 329 329 326 323 323 322 324 324 332 336 339 340 345 348 335 327 337 344 346 345 345 344 341 339 340 341 341 340 338 333 328 332 331 326 323 320 318 318 316 313 314 315 314
320 321 323 323 323 325 329 330 327 325 323 322 323 326 331 336 337 338 346 349 339 328 333 341 343 343 343 343 343 342 340 342 342 341 339 335 329 327 328 324 319 318 317 315 314 315 317 318 317
318 321 322 325 325 324 327 325 325 327 323 323 323 326 332 333 335 340 343 350 347 330 333 337 339 341 340 342 343 344 342 343 343 342 340 337 331 328 328 323 318 317 315 315 316 317 319 319 320
319 319 324 325 325 325 326 325 328 329 323 325 324 326 332 331 334 343 342 346 350 339 332 336 338 339 339 340 341 344 345 344 344 344 341 338 333 328 325 321 318 316 316 316 317 318 319 320 321
319 319 324 325 324 324 325 326 329 331 328 327 326 328 330 328 328 335 341 343 347 349 335 332 336 338 341 339 340 344 346 345 346 346 344 341 335 329 326 321 318 316 316 316 317 319 319 320 321
320 319 322 323 325 325 325 324 328 329 330 331 327 328 330 326 327 327 342 341 346 348 344 335 334 337 340 340 340 343 346 347 347 347 346 343 336 332 325 321 318 316 316 317 317 318 318 319 320
318 319 321 322 323 323 323 325 324 326 331 330 328 329 329 327 326 327 331 342 348 348 347 341 329 334 337 345 341 342 344 346 347 347 346 343 338 332 327 322 318 316 316 317 317 317 318 318 318
317 318 320 320 322 322 322 322 323 324 326 326 328 328 329 328 326 326 325 325 349 351 348 346 336 332 335 343 345 343 345 345 346 346 345 342 336 332 327 322 320 317 316 316 316 317 319 318 318
315 316 317 319 320 320 321 321 321 326 326 325 326 329 329 326 325 324 323 322 326 355 352 348 344 333 334 340 342 344 344 345 345 344 343 338 333 329 325 322 321 321 322 321 317 316 318 319 318
315 316 316 318 319 319 320 321 321 322 324 325 325 327 328 327 324 324 324 323 322 333 353 349 345 335 335 343 343 337 339 340 341 340 337 332 330 327 336 338 336 335 335 333 325 319 318 319 324
312 315 317 318 319 319 319 320 320 320 320 325 325 326 326 327 323 323 325 324 322 326 346 347 344 339 337 344 344 342 334 335 334 334 332 328 326 331 338 340 339 339 339 340 333 326 326 333 336
312 313 315 316 316 315 317 319 318 318 319 320 325 326 326 325 325 325 325 324 324 335 340 346 345 343 341 342 345 343 341 336 334 336 336 333 329 331 337 340 341 341 342 341 338 337 334 334 336
313 313 313 313 313 314 315 315 316 318 318 318 319 324 325 325 324 325 325 323 324 325 336 341 348 344 343 347 348 349 345 343 340 339 336 336 336 335 340 342 344 343 344 342 339 338 337 336 337
313 313 313 313 313 313 315 315 315 316 317 317 317 321 323 323 324 323 323 323 324 325 330 333 350 348 343 345 346 348 349 345 343 342 341 339 336 343 340 345 342 345 343 343 342 340 339 338 337
312 311 312 313 315 315 314 314 315 315 316 316 317 317 317 321 322 323 323 324 326 326 328 331 341 347 346 343 343 345 347 347 346 344 344 343 342 342 347 344 345 344 342 339 339 337 336 334 335
312 311 312 313 314 315 314 314 315 315 315 315 315 315 316 316 318 321 324 325 326 326 325 326 331 340 342 341 341 344 346 346 345 345 345 348 345 344 345 347 347 346 343 341 339 337 336 334 336
312 313 313 314 315 315 314 314 314 316 316 315 314 315 316 318 319 324 324 323 324 324 323 321 327 334 346 339 340 345 346 346 344 344 343 349 349 346 346 345 347 346 345 343 340 338 337 339 341
315 315 315 315 315 313 313 313 315 315 316 313 314 315 316 317 318 322 322 322 323 323 323 324 326 326 338 346 343 333 342 344 343 341 341 341 342 350 348 345 346 346 345 343 340 337 338 339 343
314 313 313 314 314 314 313 314 313 314 315 314 314 314 315 316 316 318 323 323 324 326 326 325 325 326 325 334 348 344 334 339 344 343 343 338 338 339 343 345 344 345 345 343 340 337 338 341 343
313 313 314 314 314 314 314 314 314 315 315 315 315 315 315 315 315 318 321 322 324 325 325 324 325 327 325 327 333 339 345 347 346 345 344 343 341 339 340 339 339 338 340 340 339 340 339 340 343
313 313 314 314 315 314 315 315 314 315 315 315 315 315 315 314 317 317 318 320 323 323 322 322 322 323 325 324 324 327 328 335 343 342 342 343 343 344 342 341 340 338 339 339 337 337 340 341 344
313 314 314 315 313 312 313 313 314 314 316 316 316 315 315 315 314 316 317 318 320 323 321 322 321 323 323 322 324 328 331 333 329 328 332 337 337 344 343 344 342 340 340 340 337 342 343 342 343
315 314 313 314 312 313 313 314 314 314 314 317 315 316 316 316 314 315 318 319 319 319 319 318 321 324 325 326 327 327 327 329 331 329 332 336 338 337 339 340 344 343 344 343 341 340 341 345 345
314 314 314 313 313 315 314 315 315 317 318 317 316 315 315 314 314 315 315 314 317 318 318 320 320 321 322 324 325 326 326 328 327 327 324 323 322 326 332 330 341 344 344 343 342 342 340 347 345
316 315 320 321 318 318 319 320 317 318 318 316 317 315 314 313 314 315 314 314 317 318 318 321 320 321 323 324 325 327 327 327 329 330 328 326 326 326 326 331 334 341 345 344 343 344 343 345 344
315 316 317 322 323 324 320 317 316 316 316 316 316 316 314 312 312 314 315 316 317 318 319 320 322 322 322 321 323 323 325 325 327 330 331 332 333 333 332 330 330 336 341 343 345 345 344 344 342
316 316 318 319 325 325 320 318 316 316 318 317 318 315 315 315 315 314 314 315 317 318 318 320 320 321 321 321 321 324 324 324 324 328 330 329 328 330 333 336 335 333 331 329 341 345 345 344 343
315 314 319 320 318 325 323 316 315 317 316 317 317 317 315 314 313 313 312 314 317 318 319 320 321 321 321 321 321 321 320 319 319 324 323 324 327 329 333 333 334 335 340 340 333 338 349 348 348
313 318 318 322 322 323 322 319 316 314 314 318 315 316 315 315 314 316 314 314 316 317 316 317 321 320 320 322 320 318 320 320 321 318 319 322 323 323 325 330 329 332 332 338 340 336 347 352 351
Wind_Speed
19 21 20 7 2 2 5 9 7 15 1 3 5 9 17 13 9 7 11 24 28 35 33 30 28 28 27 25 22 22 21 20 20 20 20 19 18 16 16 15 13 12 11 10 10 9 9 8 8
19 23 7 1 2 1 6 12 4 7 5 7 7 6 15 11 12 7 11 22 27 33 33 32 30 28 27 25 23 21 20 19 19 18 19 18 17 16 14 14 12 10 10 9 9 9 9 8 7
19 14 2 2 3 5 7 4 11 9 9 9 8 5 7 7 9 6 13 18 26 32 33 32 31 30 29 27 25 23 21 20 19 18 17 17 16 15 13 12 11 9 8 8 8 8 8 8 6
8 5 3 1 9 13 15 8 11 6 8 10 8 5 7 9 5 11 11 21 24 30 33 33 32 30 30 29 26 23 22 21 20 18 17 16 15 14 12 10 10 9 7 6 6 5 4 6 5
4 2 2 4 8 11 18 8 5 7 8 7 10 15 7 9 15 18 11 13 25 30 33 31 30 30 30 29 28 25 22 20 19 18 17 15 14 13 12 10 9 8 7 5 4 3 3 2 2
3 1 4 5 9 14 13 8 9 16 8 11 8 12 4 16 16 9 10 6 14 32 31 32 29 28 27 28 27 26 23 21 18 16 16 15 13 12 11 9 8 7 7 5 4 4 3 3 2
6 3 6 9 14 17 15 11 15 17 16 22 2 5 2 11 16 19 8 7 9 33 31 32 31 27 25 25 25 26 24 21 20 17 14 13 13 12 11 10 8 6 6 5 4 4 5 5 5
4 3 10 12 12 14 15 2 5 2 16 16 2 6 3 4 12 19 19 6 18 35 32 31 31 28 25 23 24 25 25 23 20 17 15 13 12 12 11 10 9 8 7 6 7 7 8 8 8
6 8 12 12 15 15 18 8 5 5 3 0 6 11 7 15 15 20 27 31 24 29 32 30 29 30 25 21 22 23 23 24 21 18 16 15 14 13 11 10 9 9 9 9 9 10 11 11 11
7 7 12 9 12 14 17 14 6 2 6 5 6 7 10 17 15 16 18 17 22 21 28 30 29 32 29 20 19 22 23 22 22 21 19 17 16 13 11 11 11 11 10 11 13 13 15 15 15
10 15 10 11 14 18 18 16 10 5 8 8 11 10 11 10 12 10 13 15 19 9 21 26 28 33 33 23 20 22 22 21 20 20 20 19 18 14 11 9 11 12 12 15 16 16 19 18 17
10 14 16 19 20 19 15 9 12 10 7 12 15 12 9 8 7 7 2 10 16 21 12 25 28 32 32 28 24 22 24 21 21 21 20 21 21 19 16 17 14 14 14 13 14 16 18 18 17
10 12 17 17 13 11 11 14 11 18 12 2 11 14 14 7 8 10 9 9 8 13 16 18 27 30 30 29 25 26 25 26 24 23 23 22 22 22 20 22 18 16 16 14 12 15 15 20 21
7 9 9 9 10 7 6 6 7 15 9 11 8 12 9 10 8 12 11 16 10 6 4 6 26 31 33 28 26 17 22 25 24 24 26 24 22 23 21 22 20 20 19 18 15 18 18 19 21
13 9 10 9 8 8 6 11 16 12 9 10 14 6 9 10 15 13 19 19 21 15 12 3 8 29 30 30 29 21 17 21 27 26 24 25 26 23 25 22 25 22 21 18 21 21 22 23 23
8 8 6 7 9 12 6 19 17 10 9 12 13 8 7 12 12 22 24 21 20 22 18 10 15 18 24 25 24 24 19 16 23 31 28 28 27 29 25 26 26 26 25 25 24 24 23 23 17
6 7 11 15 15 15 13 23 19 14 13 10 9 11 14 8 9 16 19 27 22 20 16 9 11 18 21 18 17 16 22 23 24 20 12 31 32 29 28 26 28 25 25 25 25 26 25 25 18
9 7 10 10 7 10 8 17 10 7 5 8 9 8 8 7 5 13 20 29 26 20 17 11 7 11 18 19 15 12 15 23 25 25 19 16 28 31 29 31 29 28 23 27 27 25 20 16 18
11 13 10 8 13 12 12 9 9 8 5 7 7 8 7 8 7 18 26 24 20 17 14 10 8 7 11 18 21 17 15 15 20 30 30 22 23 29 28 30 32 29 31 25 28 24 15 17 15
11 13 8 10 12 13 11 11 10 8 6 7 7 9 10 7 8 7 24 25 23 19 13 9 6 6 9 13 19 19 26 22 23 29 23 27 28 24 28 30 33 33 31 31 25 25 20 14 12
7 9 7 9 15 12 9 13 10 9 7 7 10 15 9 12 11 10 15 26 24 20 15 11 9 6 6 8 13 12 19 24 25 27 28 28 23 31 29 33 37 38 33 32 32 28 23 16 14
6 10 12 14 7 4 5 13 12 7 12 14 15 19 19 11 10 11 15 18 27 24 18 14 9 7 8 8 12 14 19 20 25 22 22 18 24 26 21 32 38 39 34 32 34 29 26 21 23
8 9 10 5 6 8 7 5 15 9 10 15 16 16 17 20 10 14 10 19 21 21 16 9 4 5 6 9 12 12 14 17 19 12 13 21 24 23 22 30 36 38 38 30 31 25 27 28 25
16 9 8 4 2 12 14 10 18 16 11 7 10 20 13 13 12 14 19 25 18 13 11 9 10 7 5 8 11 13 14 18 13 13 8 8 17 25 21 29 35 37 36 35 34 34 28 32 30
16 8 7 6 5 16 13 13 14 7 13 6 11 10 8 13 13 15 13 10 20 17 16 16 16 15 13 13 15 17 17 17 14 14 13 15 17 18 24 27 24 34 39 42 40 37 34 38 37
8 5 4 7 5 10 12 7 6 6 14 9 9 5 7 7 9 11 11 11 20 23 24 25 24 19 15 14 15 13 17 14 12 13 14 13 16 17 19 14 15 25 33 38 40 38 39 44 38
5 9 6 3 5 5 5 9 13 7 8 16 13 9 4 7 8 9 7 12 18 24 28 30 23 25 20 16 16 15 14 13 14 13 14 14 17 15 19 21 19 16 16 28 39 36 40 41 42
4 3 4 4 3 6 8 15 6 7 5 9 6 7 4 4 5 5 7 10 16 20 24 34 27 28 25 21 19 15 12 13 15 12 14 15 17 16 16 20 23 26 29 31 25 34 38 38 41
8 2 4 3 4 5 4 5 3 6 6 6 4 4 7 15 13 2 5 11 15 16 21 30 31 29 26 27 23 20 16 15 14 13 14 17 17 17 18 19 22 24 29 30 27 28 34 34 35
4 5 4 1 2 2 4 6 8 10 9 5 7 4 5 7 9 11 12 18 16 15 12 11 22 28 27 19 16 11 8 10 12 11 11 14 18 21 21 24 26 27 30 29 31 28 27 32 33
Wind_Direction
321 328 320 303 41 111 252 257 252 298 171 319 49 72 79 58 78 119 143 132 139 152 159 163 160 154 150 153 155 154 149 145 142 141 138 134 135 136 131 126 122 119 116 115 109 103 96 90 86
323 326 326 309 122 313 265 250 359 339 352 5 42 32 79 74 86 71 79 136 145 155 161 165 163 159 155 156 159 159 155 151 149 147 143 138 138 137 136 130 124 121 121 119 112 106 102 93 88
321 300 359 173 217 223 251 277 1 339 356 9 9 43 89 120 68 89 85 145 150 159 165 168 166 164 162 162 164 164 163 159 157 154 150 145 143 142 141 133 128 129 126 122 116 111 107 100 86
310 336 316 182 262 270 263 330 307 338 336 13 358 33 81 84 95 109 97 166 158 165 170 171 170 169 169 167 165 170 169 166 164 161 158 154 149 145 143 142 137 134 129 126 121 116 109 102 97
287 295 256 267 265 268 277 261 316 0 340 353 2 336 94 71 81 109 113 149 166 167 174 175 176 175 175 171 169 172 173 173 171 167 165 163 157 155 154 154 151 143 138 139 141 144 140 130 114
301 135 256 266 271 270 274 271 292 283 325 318 359 15 32 64 43 55 90 157 181 167 174 173 182 182 181 177 174 174 176 176 177 174 171 169 166 165 164 166 166 161 159 165 177 190 210 212 215
210 273 257 259 259 272 275 293 208 215 260 272 239 354 331 35 30 13 119 51 142 170 166 172 181 188 186 185 181 179 178 181 178 179 180 176 176 178 179 178 182 188 184 192 214 228 238 240 242
232 228 262 265 269 275 280 271 153 163 221 263 331 239 159 6 28 17 39 108 134 168 165 168 177 190 191 189 188 186 183 184 185 183 183 183 188 191 193 195 193 205 212 222 236 241 248 253 260
253 240 248 247 257 274 286 293 239 208 110 285 265 251 117 57 28 26 26 13 138 163 169 169 176 187 195 195 191 190 189 188 188 189 190 188 194 200 205 211 215 223 231 241 248 257 255 258 263
222 241 237 242 261 266 276 287 296 134 194 251 269 292 282 85 45 34 34 13 28 158 173 171 175 186 189 197 200 192 191 194 194 193 195 194 195 199 214 225 234 238 243 253 257 262 263 262 264
234 240 251 257 251 254 264 280 286 211 204 198 217 217 248 120 95 37 25 15 355 31 175 180 175 183 183 187 204 200 196 196 197 199 196 197 194 196 203 211 219 237 247 255 252 261 261 264 267
240 247 238 244 257 266 267 275 293 296 209 214 209 209 239 212 127 110 336 342 5 356 145 185 181 174 180 179 201 204 206 205 204 205 202 196 196 194 206 220 232 240 251 260 252 256 258 257 258
258 257 252 258 246 257 266 273 270 280 295 316 238 201 202 217 171 143 212 250 302 9 52 161 188 175 172 182 194 205 206 209 211 207 207 202 199 196 201 214 225 238 244 247 249 259 268 268 269
255 266 266 273 269 262 259 284 301 278 299 309 290 221 189 210 202 166 179 211 221 240 13 49 188 188 171 164 174 184 209 208 206 205 208 207 204 203 205 213 219 234 241 245 251 258 263 270 266
322 320 308 286 284 282 305 292 265 279 260 274 281 200 194 200 214 209 210 207 206 203 239 177 156 190 183 186 189 181 164 209 209 206 204 207 208 207 208 212 221 230 232 243 247 255 257 261 261
304 306 293 275 276 264 202 262 255 259 243 245 264 264 228 216 209 217 224 205 191 191 199 190 175 193 190 199 208 208 190 164 202 214 208 209 207 207 209 217 222 228 235 239 245 251 254 258 263
269 252 255 273 242 239 214 243 245 232 242 251 247 250 257 280 202 209 203 181 164 178 194 194 202 195 201 208 218 229 213 196 192 197 194 213 210 206 213 220 228 229 234 240 249 256 263 272 279
259 262 262 255 286 332 285 252 228 202 232 254 260 243 225 171 156 151 162 168 173 178 190 198 222 210 202 199 205 213 221 213 209 208 202 193 206 209 214 224 226 228 232 236 247 255 260 276 279
255 268 282 319 325 326 302 299 301 258 238 278 286 280 202 195 197 157 173 170 154 157 169 185 217 236 222 199 200 198 249 246 240 231 218 207 218 215 218 230 231 234 236 241 245 254 262 268 274
280 294 304 316 309 296 301 296 283 254 229 232 265 263 252 234 191 160 156 159 154 154 159 171 204 241 240 234 214 198 202 232 237 243 233 219 226 229 229 233 240 239 236 239 242 246 244 251 260
274 298 272 258 271 276 298 291 299 277 285 274 256 258 238 216 201 158 151 157 157 155 164 179 191 209 238 237 231 226 201 194 209 231 233 223 224 231 230 239 245 246 238 238 242 241 241 235 239
289 274 288 290 329 270 4 299 286 294 296 289 274 257 250 207 199 168 160 160 163 168 172 169 181 213 241 242 236 235 231 207 206 227 245 232 235 240 240 243 244 245 241 232 232 241 233 227 224
237 261 281 279 310 319 303 286 281 280 274 271 278 259 231 231 166 185 134 127 123 139 140 145 211 227 264 261 262 253 253 242 189 209 222 239 243 244 249 246 241 240 241 232 229 222 224 223 222
285 249 256 272 244 268 266 238 268 268 266 301 299 296 217 138 126 113 124 127 132 158 192 205 182 202 255 258 260 260 257 263 262 187 204 217 246 237 245 250 248 244 243 244 240 233 226 225 218
254 273 278 275 271 260 256 251 247 302 282 322 298 330 119 133 132 133 138 151 169 177 182 195 203 225 225 240 254 257 250 247 259 266 218 237 263 271 247 247 262 257 251 246 245 235 227 222 218
300 238 186 258 227 277 316 266 260 295 310 279 242 291 122 111 137 148 163 177 174 182 195 197 196 213 213 227 242 251 258 256 245 245 268 253 249 259 276 267 254 252 251 247 243 234 226 224 226
261 287 257 267 308 253 231 262 277 277 331 345 199 207 169 149 146 155 163 155 188 203 207 203 191 198 207 230 242 246 246 257 263 261 255 253 260 256 265 270 270 267 265 261 241 230 231 231 229
207 284 352 7 284 246 226 239 244 296 23 4 357 348 358 144 155 133 139 168 185 196 202 195 197 200 211 221 237 248 254 269 271 282 285 288 296 297 295 290 281 279 274 267 271 242 234 236 242
322 344 78 141 181 294 288 260 21 40 16 346 334 10 12 7 342 238 199 230 227 220 198 192 197 203 206 213 223 232 246 265 273 272 267 276 282 287 285 284 283 283 283 274 269 260 247 234 237
322 73 70 213 292 261 291 276 283 354 261 277 281 295 7 3 358 303 343 283 207 185 180 187 210 209 216 199 197 214 233 265 266 281 292 296 282 280 278 277 280 282 280 284 274 266 247 234 228